FW5480 Weather Reports


time (UTC)temp
C
wind
direction
speed
KPH
gust
KPH
rain 1hr
cm
rain 24hr
cm
rain mn
cm
humidity
%
barometer
mb
20260504175515 21 315 3.2 12.9 0.00 0.00 0.00 31 1007.1
20260504174515 21 315 1.6 9.7 0.00 0.00 0.00 32 1007.3
20260504173515 21 315 1.6 6.4 0.00 0.00 0.00 31 1007.1
20260504172515 21 270 3.2 9.7 0.00 0.00 0.00 34 1007.2
20260504171515 20 270 3.2 14.5 0.00 0.00 0.00 32 1007.2
20260504170515 20 315 3.2 17.7 0.00 0.00 0.00 31 1007.5
20260504150516 17 90 3.2 11.3 0.00 0.00 0.00 37 1008.6
20260504140515 15 68 3.2 16.1 0.00 0.00 0.00 45 1008.8
20260504130516 12 158 1.6 4.8 0.00 0.00 0.00 51 1008.9
20260504110517 5 0.0 0.0 0.00 0.00 0.00 72 1009.3
20260504100517 3 0.0 0.0 0.00 0.00 0.00 76 1008.8
20260504081537 5 0.0 0.0 0.00 0.00 0.00 61 1008.8
20260504080516 6 0.0 0.0 0.00 0.00 0.00 63 1009.0
20260504050537 6 0.0 0.0 0.00 0.00 0.00 64 1009.2
20260504045516 5 0.0 0.0 0.00 0.00 0.00 64 1009.2
20260504044516 5 0.0 0.0 0.00 0.00 0.00 67 1009.1
20260504043516 5 0.0 0.0 0.00 0.00 0.00 62 1009.2
20260504042516 5 0.0 0.0 0.00 0.00 0.00 71 1009.2
20260504041516 5 0.0 0.0 0.00 0.00 0.00 73 1009.1
20260504040516 5 0.0 0.0 0.00 0.00 0.00 72 1009.2
20260504035517 4 0.0 0.0 0.00 0.00 0.00 75 1009.0
20260504034516 4 0.0 0.0 0.00 0.00 0.00 72 1008.9
20260504033516 4 0.0 0.0 0.00 0.00 0.00 72 1008.9
20260504032516 5 0.0 0.0 0.00 0.00 0.00 69 1008.8
20260504031516 5 0.0 0.0 0.00 0.00 0.00 68 1008.7
20260504030538 4 0.0 0.0 0.00 0.00 0.00 66 1008.7
20260504025516 4 0.0 0.0 0.00 0.00 0.00 62 1008.6
20260504024516 5 0.0 0.0 0.00 0.00 0.00 63 1008.7
20260504023536 5 0.0 0.0 0.00 0.00 0.00 58 1008.7
20260504022536 5 0.0 0.0 0.00 0.00 0.00 60 1008.6
20260504021517 5 0.0 0.0 0.00 0.00 0.00 60 1008.4
20260504020517 5 0.0 0.0 0.00 0.00 0.00 60 1008.3
20260504015516 5 0.0 1.6 0.00 0.00 0.00 61 1008.2
20260504014516 5 0.0 0.0 0.00 0.00 0.00 58 1008.1
20260504013517 4 0.0 1.6 0.00 0.00 0.00 64 1008.0
20260504012516 4 0.0 0.0 0.00 0.00 0.00 65 1007.9
20260504011517 4 0.0 0.0 0.00 0.00 0.00 67 1007.7
20260504010517 4 0.0 0.0 0.00 0.00 0.00 67 1007.4
20260504005516 4 0.0 0.0 0.00 0.00 0.00 69 1007.3
20260504004516 4 0.0 0.0 0.00 0.00 0.00 68 1007.1
20260504003516 5 0.0 0.0 0.00 0.00 0.00 66 1007.2
20260504002516 5 0.0 0.0 0.00 0.00 0.00 63 1007.1
20260504001517 5 0.0 0.0 0.00 0.00 0.00 59 1006.9
20260504000516 6 0.0 0.0 0.00 0.00 0.00 56 1006.8
20260503235617 6 0.0 0.0 0.00 0.00 0.00 56 1006.7
20260503234517 7 0.0 0.0 0.00 0.00 0.00 52 1006.6
20260503233516 7 0.0 0.0 0.00 0.00 0.00 53 1006.5
20260503232516 7 0.0 0.0 0.00 0.00 0.00 49 1006.6
20260503231516 8 0.0 1.6 0.00 0.00 0.00 48 1006.5
20260503230516 8 0.0 1.6 0.00 0.00 0.00 47 1006.5
20260503225537 8 315 1.6 4.8 0.00 0.00 0.00 42 1006.5
20260503224516 9 0.0 1.6 0.00 0.00 0.00 44 1006.5
20260503223516 9 0.0 3.2 0.00 0.00 0.00 46 1006.3
20260503222516 9 0.0 3.2 0.00 0.00 0.00 43 1006.4
20260503221516 9 315 1.6 3.2 0.00 0.00 0.00 43 1006.2
20260503220516 9 315 1.6 4.8 0.00 0.00 0.00 46 1006.3
20260503215516 8 315 1.6 4.8 0.00 0.00 0.00 47 1006.4
20260503214536 8 315 3.2 6.4 0.00 0.00 0.00 44 1006.2
20260503213516 8 315 1.6 3.2 0.00 0.00 0.00 45 1006.1
20260503212515 9 315 1.6 9.7 0.00 0.00 0.00 44 1006.1
20260503211536 9 315 3.2 9.7 0.00 0.00 0.00 43 1006.2
20260503210516 9 0.0 3.2 0.00 0.00 0.00 44 1006.0
20260503205516 9 315 1.6 8.0 0.00 0.00 0.00 41 1005.9
20260503204517 9 315 4.8 11.3 0.00 0.00 0.00 41 1005.8
20260503203516 10 315 3.2 9.7 0.00 0.00 0.00 40 1005.8
20260503202536 10 315 1.6 4.8 0.00 0.00 0.00 43 1005.9
20260503201516 10 315 3.2 11.3 0.00 0.00 0.00 41 1005.8
20260503200516 10 315 3.2 9.7 0.00 0.00 0.00 44 1005.8
20260503195517 9 315 1.6 6.4 0.00 0.00 0.00 44 1005.7
20260503194515 9 315 3.2 8.0 0.00 0.00 0.00 45 1005.9
20260503193516 9 315 3.2 9.7 0.00 0.00 0.00 44 1005.9
20260503192516 9 315 1.6 11.3 0.00 0.00 0.00 43 1005.9
20260503191516 9 315 1.6 3.2 0.00 0.00 0.00 43 1005.8
20260503190517 9 315 3.2 19.3 0.00 0.00 0.00 42 1005.9
20260503185516 9 315 3.2 9.7 0.00 0.00 0.00 48 1005.8
20260503184515 9 315 3.2 9.7 0.00 0.00 0.00 46 1005.8
20260503183515 10 293 3.2 8.0 0.00 0.00 0.00 44 1006.0
20260503182515 10 315 1.6 6.4 0.00 0.00 0.00 46 1005.9
20260503181535 10 68 3.2 12.9 0.00 0.00 0.00 46 1005.8
20260503180516 10 315 3.2 8.0 0.00 0.00 0.00 48 1005.7